Regional Weather Roundup
Issued by NWS Cleveland, OH

Home | Current Version | Previous Version | Graphics & Text | Print | Product List | Glossary On
Versions: 1 2 3 4 5 6 7 8 9 10 11 12 13 14 15 16 17 18 19 20 21 22 23 24 25 26 27 28 29 30 31 32 33 34 35 36 37 38 39 40 41 42 43 44 45 46 47 48 49 50
000
ASUS41 KCLE 170712
RWRCLE
OHIO REGIONAL WEATHER ROUNDUP
NATIONAL WEATHER SERVICE WILMINGTON, OH
200 AM EST TUE JAN 17 2017

NOTE: "FAIR" INDICATES FEW OR NO CLOUDS BELOW 12,000 FEET WITH NO
SIGNIFICANT WEATHER AND/OR OBSTRUCTIONS TO VISIBILITY.

OHZ001>008-015>018-024>027-034-035-043-044-170800-
   NORTHWEST OHIO

CITY           SKY/WX    TMP DP  RH WIND       PRES   REMARKS
DEFIANCE       RAIN      39  36  89 E12       29.92F FOG
FINDLAY        RAIN      45  42  89 SE10      29.97F FOG
TOLEDO EXPRESS RAIN      34  34 100 E9        29.97F FOG     WCI  27
TOLEDO EXEC    RAIN      36  36 100 E6        30.00F VSB 1
LIMA           LGT RAIN  49  49 100 S14       29.97F FOG
$$

OHZ009>014-019>023-028>033-038-089-170800-
   NORTHEAST OHIO

CITY           SKY/WX    TMP DP  RH WIND       PRES   REMARKS
CLE-HOPKINS    LGT RAIN  42  38  85 SE9       30.06F FOG
CLE-LAKEFRONT  LGT RAIN  41  38  89 SE13      30.02F
CUY CO. ARPT   NOT AVBL
LORAIN-ELYRIA  CLOUDY    39  36  89 S6        30.03F FOG
ASHTABULA      LGT RAIN  37  35  92 SE7       30.09F FOG
AKRON-CANTON   LGT RAIN  41  37  86 SE7       30.06F FOG
WOOSTER        LGT RAIN  37  36  96 SE3       30.05F FOG
MANSFIELD      LGT RAIN  44  44 100 SE9       30.02F FOG
YOUNGSTOWN     CLOUDY    39  36  89 SE10      30.08F
$$

OHZ042-051>053-060>062-070>072-077>081-170800-
  SOUTHWEST OHIO

CITY           SKY/WX    TMP DP  RH WIND       PRES   REMARKS
CINC-COVINGTON CLOUDY    56  54  93 S16G23    29.96F
CINC-LUNKEN    MOCLDY    55  54  96 S10       29.98F
HAMILTON       CLOUDY    54  53  97 VRB5      29.98F
DAYTON         LGT RAIN  50  49  96 SE10      29.97F FOG
WRIGHT-PAT AFB LGT RAIN  51  51 100 SE6       29.97F
DAYTON GENERAL CLOUDY    54  52  93 SE13G21   29.97F
WILMINGTON     LGT RAIN  52  51  97 S10       30.00F
$$

OHZ036-037-039>041-045>050-054>059-063>069-073>076-082>088-170800-
  CENTRAL AND SOUTHEAST OHIO

CITY           SKY/WX    TMP DP  RH WIND       PRES   REMARKS
COLUMBUS       LGT RAIN  50  49  96 SE7       30.03F FOG
OSU AIRPORT    LGT RAIN  47  47 100 SE6       30.02F FOG
BOLTON FIELD   CLOUDY    47  47 100 SE5       30.03F
RICKENBACK AFB LGT RAIN  46  46 100 CALM      30.03F
NEWARK         LGT RAIN  42  40  92 CALM      30.04F FOG
MARION         LGT RAIN  46  45  96 S7        30.01F FOG
LANCASTER      LGT RAIN  49  47  93 SE7       30.04F FOG
ZANESVILLE     CLOUDY    43  41  93 CALM      30.06F FOG
NEW PHILLY     LGT RAIN  41  39  93 CALM      30.08F
$$




USA.gov is the U.S. government's official web portal to all federal, state and local government web resources and services.